THOR AGENA B DEB, 1948

Orbit data source: Space-Track

THOR AGENA B DEB, 1948 is space debris in LEO originally from a launch on Mon, 29 Nov 1965 UTC launched from the Air Force Western Test Range (AFWTR). Debris objects in space refer to the collection of defunct objects orbiting the Earth. Examples of debris include non-operational satellites, rocket bodies, and fragments generated from explosions, collisions, or faulty payload assembly.

Loading next visibility...
Identifier
1948, 1965-098F
Orbit
LEO
Country
Flag of USUS
Related business
Manufacturer
Unknown
Mission
Spacecraft
Bus & Motor
Unknown
Mass
~1 kg wet, ~1 kg dry
Launch date (UTC)
1965-11-29 (60 years ago)
Launch vehicle
Unknown
Launch site
Air Force Western Test Range (AFWTR)
Object type
Payload
Rocket body
Debris
Shape & HBR
Unknown
Radar Cross Section
Medium (>0.1 m² and <1 m²)

Expand to show TLE details & history
Last TLE update: 14 hours ago

TLE from 14 hours ago
0 THOR AGENA B DEB
1 01948U 65098F   25299.63008554  .00007959  00000-0  14708-2 0  9990
2 01948  79.8465 161.0525 0760659 120.5763 247.2673 13.58471393777422
Epoch: 2025-10-26T15:07Z
TLE epoch observation values (Epoch: 2025-10-26T15:07:19.390Z)
Latitude
-0.00011°
Longitude
-101.02184°
Altitude
1,297.075 km
Speed
7.084 km/s
True Right ascension
10h 44m 12s
True Declination
0° 00' 00"
Sunlit
Object was in daylight at epoch
Visualization orbit readout
Latitude
Unknown
Longitude
Unknown
Altitude
Unknown
Speed
Unknown
Apparent Right ascension
Unknown
Apparent Declination
Unknown
Sunlit
N/A
Visualization observer readout
Local Sidereal Time
00:36:08
Azimuth
Unknown
Elevation
Unknown
Doppler factor
Unknown
Orbital elements
Apogee altitude
1,602.7 km
Perigee altitude
474.387 km
Semi-major axis
7,416.68 km
Eccentricity
0.07607
Inclination
79.8465°
RAAN
161.0525°
Arg. of periapsis
120.5763°
True anomaly
239.53662°
Mean anomaly
247.2673°
Eccentric anomaly
243.37132°
Mean motion
3.39804 °/min
Orbital period
105.94 mins
BSTAR
0.0014708
Loading maneuver chart data...
Computing Atmospheric mass density...
Loading historical data...
Loading historical data...
Loading historical data...
Loading historical data...
Loading historical data...
Loading historical data...
Loading historical data...

Documentation

Showing up to 5 results
|